Year,Month,Day,Hour,Minute,Value (Times are PST for temperature in C)
2018,10,15,00,00,5.30
2018,10,15,00,01,5.30
2018,10,15,00,02,5.30
2018,10,15,00,03,5.30
2018,10,15,00,04,5.30
2018,10,15,00,05,5.30
2018,10,15,00,06,5.30
2018,10,15,00,07,5.20
2018,10,15,00,08,5.20
2018,10,15,00,09,5.20
2018,10,15,00,10,5.20
2018,10,15,00,11,5.20
2018,10,15,00,12,5.20
2018,10,15,00,13,5.20
2018,10,15,00,14,5.20
2018,10,15,00,15,5.10
2018,10,15,00,16,5.10
2018,10,15,00,17,5.10
2018,10,15,00,18,5.10
2018,10,15,00,19,5.10
2018,10,15,00,20,5.00
2018,10,15,00,21,5.00
2018,10,15,00,22,5.00
2018,10,15,00,23,5.00
2018,10,15,00,24,4.90
2018,10,15,00,25,4.90
2018,10,15,00,26,4.90
2018,10,15,00,27,4.90
2018,10,15,00,28,4.90
2018,10,15,00,29,4.90
2018,10,15,00,30,4.80
2018,10,15,00,31,4.80
2018,10,15,00,32,4.80
2018,10,15,00,33,4.80
2018,10,15,00,34,4.80
2018,10,15,00,35,4.80
2018,10,15,00,36,4.80
2018,10,15,00,37,4.80
2018,10,15,00,38,4.80
2018,10,15,00,39,4.80
2018,10,15,00,40,4.70
2018,10,15,00,41,4.70
2018,10,15,00,42,4.70
2018,10,15,00,43,4.70
2018,10,15,00,44,4.70
2018,10,15,00,45,4.70
2018,10,15,00,46,4.70
2018,10,15,00,47,4.70
2018,10,15,00,48,4.70
2018,10,15,00,49,4.70
2018,10,15,00,50,4.70
2018,10,15,00,51,4.60
2018,10,15,00,52,4.60
2018,10,15,00,53,4.60
2018,10,15,00,54,4.60
2018,10,15,00,55,4.60
2018,10,15,00,56,4.60
2018,10,15,00,57,4.60
2018,10,15,00,58,4.60
2018,10,15,00,59,4.60
2018,10,15,01,00,4.60
2018,10,15,01,01,4.60
2018,10,15,01,02,4.60
2018,10,15,01,03,4.60
2018,10,15,01,04,4.60
2018,10,15,01,05,4.60
2018,10,15,01,06,4.70
2018,10,15,01,07,4.70
2018,10,15,01,08,4.70
2018,10,15,01,09,4.70
2018,10,15,01,10,4.70
2018,10,15,01,11,4.70
2018,10,15,01,12,4.70
2018,10,15,01,13,4.70
2018,10,15,01,14,4.70
2018,10,15,01,15,4.70
2018,10,15,01,16,4.70
2018,10,15,01,17,4.70
2018,10,15,01,18,4.60
2018,10,15,01,19,4.60
2018,10,15,01,20,4.60
2018,10,15,01,21,4.60
2018,10,15,01,22,4.60
2018,10,15,01,23,4.50
2018,10,15,01,24,4.50
2018,10,15,01,25,4.50
2018,10,15,01,26,4.40
2018,10,15,01,27,4.40
2018,10,15,01,28,4.40
2018,10,15,01,29,4.40
2018,10,15,01,30,4.40
2018,10,15,01,31,4.40
2018,10,15,01,32,4.30
2018,10,15,01,33,4.30
2018,10,15,01,34,4.30
2018,10,15,01,35,4.30
2018,10,15,01,36,4.30
2018,10,15,01,37,4.30
2018,10,15,01,38,4.30
2018,10,15,01,39,4.30
2018,10,15,01,40,4.40
2018,10,15,01,41,4.40
2018,10,15,01,42,4.40
2018,10,15,01,43,4.40
2018,10,15,01,44,4.40
2018,10,15,01,45,4.40
2018,10,15,01,46,4.40
2018,10,15,01,47,4.40
2018,10,15,01,48,4.40
2018,10,15,01,49,4.40
2018,10,15,01,50,4.40
2018,10,15,01,51,4.40
2018,10,15,01,52,4.30
2018,10,15,01,53,4.30
2018,10,15,01,54,4.30
2018,10,15,01,55,4.40
2018,10,15,01,56,4.40
2018,10,15,01,57,4.40
2018,10,15,01,58,4.30
2018,10,15,01,59,4.30
2018,10,15,02,00,4.30
2018,10,15,02,01,4.30
2018,10,15,02,02,4.30
2018,10,15,02,03,4.30
2018,10,15,02,04,4.30
2018,10,15,02,05,4.30
2018,10,15,02,06,4.30
2018,10,15,02,07,4.30
2018,10,15,02,08,4.30
2018,10,15,02,09,4.30
2018,10,15,02,10,4.30
2018,10,15,02,11,4.30
2018,10,15,02,12,4.30
2018,10,15,02,13,4.20
2018,10,15,02,14,4.20
2018,10,15,02,15,4.20
2018,10,15,02,16,4.20
2018,10,15,02,17,4.20
2018,10,15,02,18,4.20
2018,10,15,02,19,4.20
2018,10,15,02,20,4.20
2018,10,15,02,21,4.20
2018,10,15,02,22,4.20
2018,10,15,02,23,4.20
2018,10,15,02,24,4.20
2018,10,15,02,25,4.20
2018,10,15,02,26,4.20
2018,10,15,02,27,4.20
2018,10,15,02,28,4.10
2018,10,15,02,29,4.10
2018,10,15,02,30,4.10
2018,10,15,02,31,4.00
2018,10,15,02,32,4.00
2018,10,15,02,33,4.00
2018,10,15,02,34,4.00
2018,10,15,02,35,4.00
2018,10,15,02,36,3.90
2018,10,15,02,37,3.90
2018,10,15,02,38,3.90
2018,10,15,02,39,3.90
2018,10,15,02,40,3.90
2018,10,15,02,41,3.90
2018,10,15,02,42,3.90
2018,10,15,02,43,3.90
2018,10,15,02,44,3.90
2018,10,15,02,45,3.90
2018,10,15,02,46,3.90
2018,10,15,02,47,3.90
2018,10,15,02,48,3.90
2018,10,15,02,49,3.90
2018,10,15,02,50,3.90
2018,10,15,02,51,3.80
2018,10,15,02,52,3.80
2018,10,15,02,53,3.80
2018,10,15,02,54,3.80
2018,10,15,02,55,3.80
2018,10,15,02,56,3.80
2018,10,15,02,57,3.80
2018,10,15,02,58,3.80
2018,10,15,02,59,3.80
2018,10,15,03,00,3.80
2018,10,15,03,01,3.80
2018,10,15,03,02,3.70
2018,10,15,03,03,3.70
2018,10,15,03,04,3.70
2018,10,15,03,05,3.70
2018,10,15,03,06,3.70
2018,10,15,03,07,3.70
2018,10,15,03,08,3.70
2018,10,15,03,09,3.70
2018,10,15,03,10,3.70
2018,10,15,03,11,3.60
2018,10,15,03,12,3.60
2018,10,15,03,13,3.60
2018,10,15,03,14,3.60
2018,10,15,03,15,3.60
2018,10,15,03,16,3.60
2018,10,15,03,17,3.60
2018,10,15,03,18,3.60
2018,10,15,03,19,3.60
2018,10,15,03,20,3.60
2018,10,15,03,21,3.60
2018,10,15,03,22,3.60
2018,10,15,03,23,3.60
2018,10,15,03,24,3.60
2018,10,15,03,25,3.60
2018,10,15,03,26,3.60
2018,10,15,03,27,3.60
2018,10,15,03,28,3.60
2018,10,15,03,29,3.60
2018,10,15,03,30,3.60
2018,10,15,03,31,3.60
2018,10,15,03,32,3.60
2018,10,15,03,33,3.50
2018,10,15,03,34,3.50
2018,10,15,03,35,3.50
2018,10,15,03,36,3.50
2018,10,15,03,37,3.40
2018,10,15,03,38,3.40
2018,10,15,03,39,3.40
2018,10,15,03,40,3.40
2018,10,15,03,41,3.40
2018,10,15,03,42,3.40
2018,10,15,03,43,3.40
2018,10,15,03,44,3.40
2018,10,15,03,45,3.40
2018,10,15,03,46,3.40
2018,10,15,03,47,3.30
2018,10,15,03,48,3.30
2018,10,15,03,49,3.30
2018,10,15,03,50,3.30
2018,10,15,03,51,3.30
2018,10,15,03,52,3.30
2018,10,15,03,53,3.30
2018,10,15,03,54,3.20
2018,10,15,03,55,3.20
2018,10,15,03,56,3.20
2018,10,15,03,57,3.20
2018,10,15,03,58,3.20
2018,10,15,03,59,3.20
2018,10,15,04,00,3.20
2018,10,15,04,01,3.20
2018,10,15,04,02,3.20
2018,10,15,04,03,3.20
2018,10,15,04,04,3.20
2018,10,15,04,05,3.20
2018,10,15,04,06,3.30
2018,10,15,04,07,3.30
2018,10,15,04,08,3.30
2018,10,15,04,09,3.30
2018,10,15,04,10,3.30
2018,10,15,04,11,3.30
2018,10,15,04,12,3.30
2018,10,15,04,13,3.20
2018,10,15,04,14,3.20
2018,10,15,04,15,3.20
2018,10,15,04,16,3.20
2018,10,15,04,17,3.20
2018,10,15,04,18,3.20
2018,10,15,04,19,3.20
2018,10,15,04,20,3.20
2018,10,15,04,21,3.20
2018,10,15,04,22,3.20
2018,10,15,04,23,3.20
2018,10,15,04,24,3.20
2018,10,15,04,25,3.20
2018,10,15,04,26,3.30
2018,10,15,04,27,3.30
2018,10,15,04,28,3.30
2018,10,15,04,29,3.30
2018,10,15,04,30,3.30
2018,10,15,04,31,3.30
2018,10,15,04,32,3.30
2018,10,15,04,33,3.40
2018,10,15,04,34,3.40
2018,10,15,04,35,3.40
2018,10,15,04,36,3.40
2018,10,15,04,37,3.40
2018,10,15,04,38,3.40
2018,10,15,04,39,3.40
2018,10,15,04,40,3.40
2018,10,15,04,41,3.40
2018,10,15,04,42,3.40
2018,10,15,04,43,3.40
2018,10,15,04,44,3.40
2018,10,15,04,45,3.40
2018,10,15,04,46,3.40
2018,10,15,04,47,3.40
2018,10,15,04,48,3.40
2018,10,15,04,49,3.40
2018,10,15,04,50,3.30
2018,10,15,04,51,3.30
2018,10,15,04,52,3.30
2018,10,15,04,53,3.30
2018,10,15,04,54,3.20
2018,10,15,04,55,3.20
2018,10,15,04,56,3.20
2018,10,15,04,57,3.20
2018,10,15,04,58,3.10
2018,10,15,04,59,3.10
2018,10,15,05,00,3.10
2018,10,15,05,01,3.10
2018,10,15,05,02,3.10
2018,10,15,05,03,3.10
2018,10,15,05,04,3.10
2018,10,15,05,05,3.10
2018,10,15,05,06,3.10
2018,10,15,05,07,3.20
2018,10,15,05,08,3.20
2018,10,15,05,09,3.20
2018,10,15,05,10,3.20
2018,10,15,05,11,3.20
2018,10,15,05,12,3.20
2018,10,15,05,13,3.20
2018,10,15,05,14,3.10
2018,10,15,05,15,3.10
2018,10,15,05,16,3.10
2018,10,15,05,17,3.00
2018,10,15,05,18,3.00
2018,10,15,05,19,2.90
2018,10,15,05,20,2.90
2018,10,15,05,21,2.90
2018,10,15,05,22,2.90
2018,10,15,05,23,2.80
2018,10,15,05,24,2.80
2018,10,15,05,25,2.80
2018,10,15,05,26,2.80
2018,10,15,05,27,2.80
2018,10,15,05,28,2.80
2018,10,15,05,29,2.80
2018,10,15,05,30,2.80
2018,10,15,05,31,2.80
2018,10,15,05,32,2.80
2018,10,15,05,33,2.80
2018,10,15,05,34,2.80
2018,10,15,05,35,2.80
2018,10,15,05,36,2.70
2018,10,15,05,37,2.70
2018,10,15,05,38,2.70
2018,10,15,05,39,2.70
2018,10,15,05,40,2.70
2018,10,15,05,41,2.60
2018,10,15,05,42,2.60
2018,10,15,05,43,2.60
2018,10,15,05,44,2.60
2018,10,15,05,45,2.60
2018,10,15,05,46,2.60
2018,10,15,05,47,2.60
2018,10,15,05,48,2.60
2018,10,15,05,49,2.60
2018,10,15,05,50,2.60
2018,10,15,05,51,2.60
2018,10,15,05,52,2.60
2018,10,15,05,53,2.60
2018,10,15,05,54,2.60
2018,10,15,05,55,2.60
2018,10,15,05,56,2.60
2018,10,15,05,57,2.60
2018,10,15,05,58,2.60
2018,10,15,05,59,2.60
2018,10,15,06,00,2.60
2018,10,15,06,01,2.60
2018,10,15,06,02,2.60
2018,10,15,06,03,2.60
2018,10,15,06,04,2.60
2018,10,15,06,05,2.60
2018,10,15,06,06,2.60
2018,10,15,06,07,2.60
2018,10,15,06,08,2.60
2018,10,15,06,09,2.60
2018,10,15,06,10,2.70
2018,10,15,06,11,2.70
2018,10,15,06,12,2.70
2018,10,15,06,13,2.70
2018,10,15,06,14,2.80
2018,10,15,06,15,2.80
2018,10,15,06,16,2.80
2018,10,15,06,17,2.80
2018,10,15,06,18,2.80
2018,10,15,06,19,2.80
2018,10,15,06,20,2.80
2018,10,15,06,21,2.80
2018,10,15,06,22,2.80
2018,10,15,06,23,2.80
2018,10,15,06,24,2.80
2018,10,15,06,25,2.80
2018,10,15,06,26,2.80
2018,10,15,06,27,2.80
2018,10,15,06,28,2.70
2018,10,15,06,29,2.70
2018,10,15,06,30,2.70
2018,10,15,06,31,2.60
2018,10,15,06,32,2.60
2018,10,15,06,33,2.60
2018,10,15,06,34,2.60
2018,10,15,06,35,2.60
2018,10,15,06,36,2.50
2018,10,15,06,37,2.50
2018,10,15,06,38,2.50
2018,10,15,06,39,2.40
2018,10,15,06,40,2.40
2018,10,15,06,41,2.40
2018,10,15,06,42,2.40
2018,10,15,06,43,2.40
2018,10,15,06,44,2.40
2018,10,15,06,45,2.40
2018,10,15,06,46,2.30
2018,10,15,06,47,2.30
2018,10,15,06,48,2.30
2018,10,15,06,49,2.30
2018,10,15,06,50,2.30
2018,10,15,06,51,2.20
2018,10,15,06,52,2.20
2018,10,15,06,53,2.20
2018,10,15,06,54,2.20
2018,10,15,06,55,2.20
2018,10,15,06,56,2.20
2018,10,15,06,57,2.20
2018,10,15,06,58,2.20
2018,10,15,06,59,2.20
2018,10,15,07,00,2.20
2018,10,15,07,01,2.20
2018,10,15,07,02,2.20
2018,10,15,07,03,2.20
2018,10,15,07,04,2.20
2018,10,15,07,05,2.20
2018,10,15,07,06,2.20
2018,10,15,07,07,2.20
2018,10,15,07,08,2.20
2018,10,15,07,09,2.20
2018,10,15,07,10,2.20
2018,10,15,07,11,2.20
2018,10,15,07,12,2.20
2018,10,15,07,13,2.20
2018,10,15,07,14,2.20
2018,10,15,07,15,2.20
2018,10,15,07,16,2.20
2018,10,15,07,17,2.20
2018,10,15,07,18,2.20
2018,10,15,07,19,2.20
2018,10,15,07,20,2.20
2018,10,15,07,21,2.20
2018,10,15,07,22,2.20
2018,10,15,07,23,2.30
2018,10,15,07,24,2.30
2018,10,15,07,25,2.30
2018,10,15,07,26,2.30
2018,10,15,07,27,2.30
2018,10,15,07,28,2.30
2018,10,15,07,29,2.30
2018,10,15,07,30,2.30
2018,10,15,07,31,2.30
2018,10,15,07,32,2.30
2018,10,15,07,33,2.30
2018,10,15,07,34,2.20
2018,10,15,07,35,2.20
2018,10,15,07,36,2.20
2018,10,15,07,37,2.20
2018,10,15,07,38,2.20
2018,10,15,07,39,2.20
2018,10,15,07,40,2.30
2018,10,15,07,41,2.30
2018,10,15,07,42,2.30
2018,10,15,07,43,2.30
2018,10,15,07,44,2.30
2018,10,15,07,45,2.30
2018,10,15,07,46,2.30
2018,10,15,07,47,2.30
2018,10,15,07,48,2.30
2018,10,15,07,49,2.30
2018,10,15,07,50,2.40
2018,10,15,07,51,2.40
2018,10,15,07,52,2.40
2018,10,15,07,53,2.40
2018,10,15,07,54,2.40
2018,10,15,07,55,2.40
2018,10,15,07,56,2.40
2018,10,15,07,57,2.30
2018,10,15,07,58,2.30
2018,10,15,07,59,2.30
2018,10,15,08,00,2.30
2018,10,15,08,01,2.30
2018,10,15,08,02,2.30
2018,10,15,08,03,2.30
2018,10,15,08,04,2.30
2018,10,15,08,05,2.30
2018,10,15,08,06,2.30
2018,10,15,08,07,2.30
2018,10,15,08,08,2.30
2018,10,15,08,09,2.30
2018,10,15,08,10,2.30
2018,10,15,08,11,2.30
2018,10,15,08,12,2.30
2018,10,15,08,13,2.30
2018,10,15,08,14,2.30
2018,10,15,08,15,2.30
2018,10,15,08,16,2.30
2018,10,15,08,17,2.30
2018,10,15,08,18,2.30
2018,10,15,08,19,2.30
2018,10,15,08,20,2.30
2018,10,15,08,21,2.30
2018,10,15,08,22,2.40
2018,10,15,08,23,2.40
2018,10,15,08,24,2.40
2018,10,15,08,25,2.40
2018,10,15,08,26,2.40
2018,10,15,08,27,2.40
2018,10,15,08,28,2.40
2018,10,15,08,29,2.50
2018,10,15,08,30,2.50
2018,10,15,08,31,2.60
2018,10,15,08,32,2.60
2018,10,15,08,33,2.70
2018,10,15,08,34,2.70
2018,10,15,08,35,2.70
2018,10,15,08,36,2.70
2018,10,15,08,37,2.80
2018,10,15,08,38,2.80
2018,10,15,08,39,2.80
2018,10,15,08,40,2.90
2018,10,15,08,41,2.90
2018,10,15,08,42,2.90
2018,10,15,08,43,2.90
2018,10,15,08,44,2.90
2018,10,15,08,45,2.90
2018,10,15,08,46,3.00
2018,10,15,08,47,3.00
2018,10,15,08,48,3.00
2018,10,15,08,49,3.10
2018,10,15,08,50,3.10
2018,10,15,08,51,3.10
2018,10,15,08,52,3.20
2018,10,15,08,53,3.20
2018,10,15,08,54,3.30
2018,10,15,08,55,3.30
2018,10,15,08,56,3.30
2018,10,15,08,57,3.40
2018,10,15,08,58,3.40
2018,10,15,08,59,3.50
2018,10,15,09,00,3.60
2018,10,15,09,01,3.60
2018,10,15,09,02,3.60
2018,10,15,09,03,3.70
2018,10,15,09,04,3.70
2018,10,15,09,05,3.70
2018,10,15,09,06,3.80
2018,10,15,09,07,3.90
2018,10,15,09,08,4.00
2018,10,15,09,09,4.10
2018,10,15,09,10,4.20
2018,10,15,09,11,4.30
2018,10,15,09,12,4.40
2018,10,15,09,13,4.40
2018,10,15,09,14,4.50
2018,10,15,09,15,4.60
2018,10,15,09,16,4.60
2018,10,15,09,17,4.70
2018,10,15,09,18,4.70
2018,10,15,09,19,4.80
2018,10,15,09,20,4.80
2018,10,15,09,21,4.80
2018,10,15,09,22,4.90
2018,10,15,09,23,4.90
2018,10,15,09,24,5.00
2018,10,15,09,25,5.00
2018,10,15,09,26,5.10
2018,10,15,09,27,5.10
2018,10,15,09,28,5.20
2018,10,15,09,29,5.20
2018,10,15,09,30,5.20
2018,10,15,09,31,5.30
2018,10,15,09,32,5.30
2018,10,15,09,33,5.30
2018,10,15,09,34,5.40
2018,10,15,09,35,5.40
2018,10,15,09,36,5.50
2018,10,15,09,37,5.50
2018,10,15,09,38,5.60
2018,10,15,09,39,5.70
2018,10,15,09,40,5.70
2018,10,15,09,41,5.80
2018,10,15,09,42,5.80
2018,10,15,09,43,5.90
2018,10,15,09,44,5.90
2018,10,15,09,45,6.00
2018,10,15,09,46,6.00
2018,10,15,09,47,6.10
2018,10,15,09,48,6.20
2018,10,15,09,49,6.20
2018,10,15,09,50,6.30
2018,10,15,09,51,6.40
2018,10,15,09,52,6.40
2018,10,15,09,53,6.50
2018,10,15,09,54,6.50
2018,10,15,09,55,6.60
2018,10,15,09,56,6.70
2018,10,15,09,57,6.70
2018,10,15,09,58,6.80
2018,10,15,09,59,6.90
2018,10,15,10,00,7.00
2018,10,15,10,01,7.10
2018,10,15,10,02,7.20
2018,10,15,10,03,7.30
2018,10,15,10,04,7.40
2018,10,15,10,05,7.40
2018,10,15,10,06,7.50
2018,10,15,10,07,7.60
2018,10,15,10,08,7.60
2018,10,15,10,09,7.70
2018,10,15,10,10,7.70
2018,10,15,10,11,7.80
2018,10,15,10,12,7.90
2018,10,15,10,13,7.90
2018,10,15,10,14,8.00
2018,10,15,10,15,8.10
2018,10,15,10,16,8.20
2018,10,15,10,17,8.30
2018,10,15,10,18,8.40
2018,10,15,10,19,8.50
2018,10,15,10,20,8.60
2018,10,15,10,21,8.70
2018,10,15,10,22,8.80
2018,10,15,10,23,9.00
2018,10,15,10,24,9.10
2018,10,15,10,25,9.30
2018,10,15,10,26,9.40
2018,10,15,10,27,9.50
2018,10,15,10,28,9.50
2018,10,15,10,29,9.60
2018,10,15,10,30,9.70
2018,10,15,10,31,9.70
2018,10,15,10,32,9.70
2018,10,15,10,33,9.80
2018,10,15,10,34,9.80
2018,10,15,10,35,9.80
2018,10,15,10,36,9.80
2018,10,15,10,37,9.90
2018,10,15,10,38,9.90
2018,10,15,10,39,9.90
2018,10,15,10,40,9.90
2018,10,15,10,41,9.90
2018,10,15,10,42,10.00
2018,10,15,10,43,10.00
2018,10,15,10,44,10.00
2018,10,15,10,45,10.00
2018,10,15,10,46,10.10
2018,10,15,10,47,10.10
2018,10,15,10,48,10.10
2018,10,15,10,49,10.10
2018,10,15,10,50,10.20
2018,10,15,10,51,10.20
2018,10,15,10,52,10.20
2018,10,15,10,53,10.30
2018,10,15,10,54,10.30
2018,10,15,10,55,10.30
2018,10,15,10,56,10.40
2018,10,15,10,57,10.40
2018,10,15,10,58,10.40
2018,10,15,10,59,10.40
2018,10,15,11,00,10.50
2018,10,15,11,01,10.50
2018,10,15,11,02,10.60
2018,10,15,11,03,10.60
2018,10,15,11,04,10.70
2018,10,15,11,05,10.70
2018,10,15,11,06,10.80
2018,10,15,11,07,10.80
2018,10,15,11,08,10.90
2018,10,15,11,09,10.90
2018,10,15,11,10,11.00
2018,10,15,11,11,11.00
2018,10,15,11,12,11.10
2018,10,15,11,13,11.10
2018,10,15,11,14,11.10
2018,10,15,11,15,11.20
2018,10,15,11,16,11.20
2018,10,15,11,17,11.20
2018,10,15,11,18,11.20
2018,10,15,11,19,11.30
2018,10,15,11,20,11.30
2018,10,15,11,21,11.40
2018,10,15,11,22,11.40
2018,10,15,11,23,11.50
2018,10,15,11,24,11.50
2018,10,15,11,25,11.60
2018,10,15,11,26,11.60
2018,10,15,11,27,11.60
2018,10,15,11,28,11.60
2018,10,15,11,29,11.70
2018,10,15,11,30,11.70
2018,10,15,11,31,11.80
2018,10,15,11,32,11.80
2018,10,15,11,33,11.90
2018,10,15,11,34,11.90
2018,10,15,11,35,11.90
2018,10,15,11,36,12.00
2018,10,15,11,37,12.00
2018,10,15,11,38,12.10
2018,10,15,11,39,12.10
2018,10,15,11,40,12.20
2018,10,15,11,41,12.20
2018,10,15,11,42,12.30
2018,10,15,11,43,12.30
2018,10,15,11,44,12.40
2018,10,15,11,45,12.50
2018,10,15,11,46,12.60
2018,10,15,11,47,12.60
2018,10,15,11,48,12.60
2018,10,15,11,49,12.60
2018,10,15,11,50,12.70
2018,10,15,11,51,12.70
2018,10,15,11,52,12.70
2018,10,15,11,53,12.70
2018,10,15,11,54,12.70
2018,10,15,11,55,12.80
2018,10,15,11,56,12.80
2018,10,15,11,57,12.90
2018,10,15,11,58,12.90
2018,10,15,11,59,12.90
2018,10,15,12,00,13.00
2018,10,15,12,01,13.00
2018,10,15,12,02,13.10
2018,10,15,12,03,13.20
2018,10,15,12,04,13.20
2018,10,15,12,05,13.30
2018,10,15,12,06,13.30
2018,10,15,12,07,13.30
2018,10,15,12,08,13.30
2018,10,15,12,09,13.40
2018,10,15,12,10,13.40
2018,10,15,12,11,13.50
2018,10,15,12,12,13.50
2018,10,15,12,13,13.60
2018,10,15,12,14,13.70
2018,10,15,12,15,13.80
2018,10,15,12,16,13.80
2018,10,15,12,17,13.90
2018,10,15,12,18,13.90
2018,10,15,12,19,13.80
2018,10,15,12,20,13.80
2018,10,15,12,21,13.80
2018,10,15,12,22,13.80
2018,10,15,12,23,13.80
2018,10,15,12,24,13.70
2018,10,15,12,25,13.70
2018,10,15,12,26,13.70
2018,10,15,12,27,13.70
2018,10,15,12,28,13.60
2018,10,15,12,29,13.60
2018,10,15,12,30,13.60
2018,10,15,12,31,13.60
2018,10,15,12,32,13.60
2018,10,15,12,33,13.60
2018,10,15,12,34,13.60
2018,10,15,12,35,13.60
2018,10,15,12,36,13.60
2018,10,15,12,37,13.60
2018,10,15,12,38,13.60
2018,10,15,12,39,13.70
2018,10,15,12,40,13.70
2018,10,15,12,41,13.80
2018,10,15,12,42,13.80
2018,10,15,12,43,13.80
2018,10,15,12,44,13.90
2018,10,15,12,45,13.90
2018,10,15,12,46,13.90
2018,10,15,12,47,14.00
2018,10,15,12,48,14.00
2018,10,15,12,49,14.10
2018,10,15,12,50,14.10
2018,10,15,12,51,14.10
2018,10,15,12,52,14.10
2018,10,15,12,53,14.20
2018,10,15,12,54,14.20
2018,10,15,12,55,14.20
2018,10,15,12,56,14.30
2018,10,15,12,57,14.30
2018,10,15,12,58,14.40
2018,10,15,12,59,14.40
2018,10,15,13,00,14.50
2018,10,15,13,01,14.50
2018,10,15,13,02,14.60
2018,10,15,13,03,14.60
2018,10,15,13,04,14.60
2018,10,15,13,05,14.60
2018,10,15,13,06,14.60
2018,10,15,13,07,14.60
2018,10,15,13,08,14.60
2018,10,15,13,09,14.60
2018,10,15,13,10,14.60
2018,10,15,13,11,14.70
2018,10,15,13,12,14.70
2018,10,15,13,13,14.70
2018,10,15,13,14,14.70
2018,10,15,13,15,14.70
2018,10,15,13,16,14.70
2018,10,15,13,17,14.70
2018,10,15,13,18,14.70
2018,10,15,13,19,14.70
2018,10,15,13,20,14.70
2018,10,15,13,21,14.80
2018,10,15,13,22,14.80
2018,10,15,13,23,14.80
2018,10,15,13,24,14.80
2018,10,15,13,25,14.80
2018,10,15,13,26,14.80
2018,10,15,13,27,14.80
2018,10,15,13,28,14.90
2018,10,15,13,29,14.90
2018,10,15,13,30,14.90
2018,10,15,13,31,14.90
2018,10,15,13,32,14.90
2018,10,15,13,33,14.90
2018,10,15,13,34,14.90
2018,10,15,13,35,14.90
2018,10,15,13,36,14.90
2018,10,15,13,37,14.90
2018,10,15,13,38,14.90
2018,10,15,13,39,14.90
2018,10,15,13,40,14.90
2018,10,15,13,41,14.80
2018,10,15,13,42,14.80
2018,10,15,13,43,14.80
2018,10,15,13,44,14.80
2018,10,15,13,45,14.80
2018,10,15,13,46,14.80
2018,10,15,13,47,14.80
2018,10,15,13,48,14.80
2018,10,15,13,49,14.70
2018,10,15,13,50,14.80
2018,10,15,13,51,14.80
2018,10,15,13,52,14.80
2018,10,15,13,53,14.80
2018,10,15,13,54,14.80
2018,10,15,13,55,14.90
2018,10,15,13,56,14.90
2018,10,15,13,57,15.00
2018,10,15,13,58,15.00
2018,10,15,13,59,15.00
2018,10,15,14,00,15.10
2018,10,15,14,01,15.10
2018,10,15,14,02,15.10
2018,10,15,14,03,15.10
2018,10,15,14,04,15.10
2018,10,15,14,05,15.20
2018,10,15,14,06,15.20
2018,10,15,14,07,15.20
2018,10,15,14,08,15.30
2018,10,15,14,09,15.20
2018,10,15,14,10,15.20
2018,10,15,14,11,15.20
2018,10,15,14,12,15.30
2018,10,15,14,13,15.30
2018,10,15,14,14,15.30
2018,10,15,14,15,15.40
2018,10,15,14,16,15.40
2018,10,15,14,17,15.40
2018,10,15,14,18,15.40
2018,10,15,14,19,15.40
2018,10,15,14,20,15.40
2018,10,15,14,21,15.40
2018,10,15,14,22,15.40
2018,10,15,14,23,15.40
2018,10,15,14,24,15.30
2018,10,15,14,25,15.30
2018,10,15,14,26,15.30
2018,10,15,14,27,15.30
2018,10,15,14,28,15.30
2018,10,15,14,29,15.30
2018,10,15,14,30,15.40
2018,10,15,14,31,15.40
2018,10,15,14,32,15.40
2018,10,15,14,33,15.40
2018,10,15,14,34,15.40
2018,10,15,14,35,15.40
2018,10,15,14,36,15.40
2018,10,15,14,37,15.40
2018,10,15,14,38,15.50
2018,10,15,14,39,15.50
2018,10,15,14,40,15.50
2018,10,15,14,41,15.50
2018,10,15,14,42,15.50
2018,10,15,14,43,15.40
2018,10,15,14,44,15.40
2018,10,15,14,45,15.40
2018,10,15,14,46,15.40
2018,10,15,14,47,15.40
2018,10,15,14,48,15.30
2018,10,15,14,49,15.20
2018,10,15,14,50,15.20
2018,10,15,14,51,15.10
2018,10,15,14,52,15.10
2018,10,15,14,53,15.00
2018,10,15,14,54,15.00
2018,10,15,14,55,14.90
2018,10,15,14,56,14.90
2018,10,15,14,57,14.90
2018,10,15,14,58,14.90
2018,10,15,14,59,14.90
2018,10,15,15,00,14.80
2018,10,15,15,01,14.80
2018,10,15,15,02,14.80
2018,10,15,15,03,14.80
2018,10,15,15,04,14.80
2018,10,15,15,05,14.80
2018,10,15,15,06,14.90
2018,10,15,15,07,14.90
2018,10,15,15,08,14.90
2018,10,15,15,09,14.90
2018,10,15,15,10,14.90
2018,10,15,15,11,15.00
2018,10,15,15,12,15.00
2018,10,15,15,13,15.00
2018,10,15,15,14,15.10
2018,10,15,15,15,15.10
2018,10,15,15,16,15.20
2018,10,15,15,17,15.20
2018,10,15,15,18,15.20
2018,10,15,15,19,15.20
2018,10,15,15,20,15.30
2018,10,15,15,21,15.30
2018,10,15,15,22,15.30
2018,10,15,15,23,15.30
2018,10,15,15,24,15.30
2018,10,15,15,25,15.30
2018,10,15,15,26,15.40
2018,10,15,15,27,15.40
2018,10,15,15,28,15.40
2018,10,15,15,29,15.40
2018,10,15,15,30,15.40
2018,10,15,15,31,15.40
2018,10,15,15,32,15.40
2018,10,15,15,33,15.50
2018,10,15,15,34,15.50
2018,10,15,15,35,15.60
2018,10,15,15,36,15.60
2018,10,15,15,37,15.60
2018,10,15,15,38,15.60
2018,10,15,15,39,15.70
2018,10,15,15,40,15.70
2018,10,15,15,41,15.70
2018,10,15,15,42,15.70
2018,10,15,15,43,15.60
2018,10,15,15,44,15.50
2018,10,15,15,45,15.40
2018,10,15,15,46,15.30
2018,10,15,15,47,15.20
2018,10,15,15,48,15.10
2018,10,15,15,49,15.10
2018,10,15,15,50,15.00
2018,10,15,15,51,14.90
2018,10,15,15,52,14.90
2018,10,15,15,53,14.80
2018,10,15,15,54,14.80
2018,10,15,15,55,14.80
2018,10,15,15,56,14.80
2018,10,15,15,57,14.80
2018,10,15,15,58,14.80
2018,10,15,15,59,14.70
2018,10,15,16,00,14.70
2018,10,15,16,01,14.70
2018,10,15,16,02,14.60
2018,10,15,16,03,14.60
2018,10,15,16,04,14.60
2018,10,15,16,05,14.50
2018,10,15,16,06,14.50
2018,10,15,16,07,14.50
2018,10,15,16,08,14.50
2018,10,15,16,09,14.50
2018,10,15,16,10,14.50
2018,10,15,16,11,14.50
2018,10,15,16,12,14.50
2018,10,15,16,13,14.60
2018,10,15,16,14,14.60
2018,10,15,16,15,14.60
2018,10,15,16,16,14.60
2018,10,15,16,17,14.70
2018,10,15,16,18,14.60
2018,10,15,16,19,14.60
2018,10,15,16,20,14.50
2018,10,15,16,21,14.50
2018,10,15,16,22,14.50
2018,10,15,16,23,14.50
2018,10,15,16,24,14.50
2018,10,15,16,25,14.50
2018,10,15,16,26,14.50
2018,10,15,16,27,14.50
2018,10,15,16,28,14.50
2018,10,15,16,29,14.60
2018,10,15,16,30,14.60
2018,10,15,16,31,14.60
2018,10,15,16,32,14.60
2018,10,15,16,33,14.70
2018,10,15,16,34,14.70
2018,10,15,16,35,14.70
2018,10,15,16,36,14.70
2018,10,15,16,37,14.60
2018,10,15,16,38,14.60
2018,10,15,16,39,14.60
2018,10,15,16,40,14.60
2018,10,15,16,41,14.50
2018,10,15,16,42,14.50
2018,10,15,16,43,14.50
2018,10,15,16,44,14.50
2018,10,15,16,45,14.50
2018,10,15,16,46,14.60
2018,10,15,16,47,14.60
2018,10,15,16,48,14.60
2018,10,15,16,49,14.70
2018,10,15,16,50,14.70
2018,10,15,16,51,14.70
2018,10,15,16,52,14.70
2018,10,15,16,53,14.70
2018,10,15,16,54,14.80
2018,10,15,16,55,14.80
2018,10,15,16,56,14.80
2018,10,15,16,57,14.80
2018,10,15,16,58,14.80
2018,10,15,16,59,14.70
2018,10,15,17,00,14.70
2018,10,15,17,01,14.70
2018,10,15,17,02,14.60
2018,10,15,17,03,14.50
2018,10,15,17,04,14.50
2018,10,15,17,05,14.40
2018,10,15,17,06,14.40
2018,10,15,17,07,14.40
2018,10,15,17,08,14.30
2018,10,15,17,09,14.30
2018,10,15,17,10,14.30
2018,10,15,17,11,14.30
2018,10,15,17,12,14.30
2018,10,15,17,13,14.20
2018,10,15,17,14,14.20
2018,10,15,17,15,14.20
2018,10,15,17,16,14.10
2018,10,15,17,17,14.10
2018,10,15,17,18,14.10
2018,10,15,17,19,14.10
2018,10,15,17,20,14.00
2018,10,15,17,21,14.00
2018,10,15,17,22,14.00
2018,10,15,17,23,14.00
2018,10,15,17,24,14.10
2018,10,15,17,25,14.10
2018,10,15,17,26,14.10
2018,10,15,17,27,14.10
2018,10,15,17,28,14.10
2018,10,15,17,29,14.10
2018,10,15,17,30,14.10
2018,10,15,17,31,14.20
2018,10,15,17,32,14.20
2018,10,15,17,33,14.20
2018,10,15,17,34,14.20
2018,10,15,17,35,14.30
2018,10,15,17,36,14.30
2018,10,15,17,37,14.30
2018,10,15,17,38,14.30
2018,10,15,17,39,14.40
2018,10,15,17,40,14.40
2018,10,15,17,41,14.40
2018,10,15,17,42,14.40
2018,10,15,17,43,14.50
2018,10,15,17,44,14.50
2018,10,15,17,45,14.50
2018,10,15,17,46,14.60
2018,10,15,17,47,14.60